Location: Cadeilhan
(42.8161°N, 0.3161°E)
Time: 10:33:01
(UTC+00:00)

Cosmos 407 Rocket - Pass Details

Date: 18 February 2020
Orbit: 745 x 785 km, 74.0° (Epoch: 29 March)

Event Time Altitude Azimuth Distance (km) Brightness Sun altitude
Rises 05:47:40 0° 215° (SW) 3,261 6.5 -12.6°
Reaches altitude 10° 05:50:08 10° 221° (SW) 2,334 5.7 -12.1°
Maximum altitude 05:55:14 47° 295° (WNW) 1,030 3.8 -11.2°
Drops below altitude 10° 06:00:21 10° 9° (N) 2,329 6.0 -10.2°
Sets 06:02:49 0° 16° (NNE) 3,254 6.9 -9.8°
